User: anonymous   Login
Location: Unspecified
(0.0000°N, 0.0000°E)
Time: 23:19:51
(UTC+00:00)
Language:

STARLINK-30400 - Orbit

View from above orbital plane
View from above orbital plane
View from above satellite
View from above satellite

Ground track
Ground track

The orbit is defined by the following mean orbital elements,

1 57937U          26145.66668980 +.00000000 +00000-0 +18349-2 0 00008
2 57937  53.1594  26.6221 0001174  83.4507 108.9214 15.33490370    09
Epoch (UTC): 25 May 2026 16:00:01
Eccentricity: 0.0001174
inclination: 53.1594°
perigee height: 465 km
apogee height: 466 km
right ascension of ascending node: 26.6221°
argument of perigee: 83.4507°
revolutions per day: 15.33490370
mean anomaly at epoch: 108.9214°

The dashed part of the orbit path shows where the satellite is in the earth's shadow,  

DLR